Location: Forli
(44.2227°N, 12.0407°E)
Time: 00:10:53
(UTC+02:00)

PCSat - Pass Details

Date: 14 April 2026
Orbit: 781 x 790 km, 67.1° (Epoch: 19 May)

Event Time Altitude Azimuth Distance (km) Brightness Sun altitude
Rises 00:04:17 0° 334° (NNW) 3,294 13.8 -34.3°
Reaches altitude 10° 00:07:04 10° 347° (NNW) 2,362 12.8 -34.5°
Enters shadow 00:10:47 26° 29° (NNE) 1,519 11.3 -34.7°
